Location: Launay
(47.2429°N, 1.5727°E)
Time: 19:01:55
(UTC+00:00)

Cosmos 1500 Rocket - Pass Details

Date: 19 May 2025
Orbit: 598 x 623 km, 82.5° (Epoch: 23 June)

Event Time Altitude Azimuth Distance (km) Brightness Sun altitude
Rises 22:46:32 0° 356° (N) 2,880 8.4 -21.3°
Reaches altitude 10° 22:48:50 10° 2° (N) 1,975 7.2 -21.4°
Maximum altitude 22:53:02 45° 76° (ENE) 839 4.1 -21.6°
Enters shadow 22:53:42 42° 103° (ESE) 884 4.1 -21.6°
